Time,TemperatureF,DewpointF,PressureIn,WindDirection,WindDirectionDegrees,WindSpeedMPH,WindSpeedGustMPH,Humidity,HourlyPrecipIn,Conditions,Clouds,dailyrainin,SolarRadiationWatts/m^2,SoftwareType,DateUTC
2013-04-25 00:02:00,58.3,42.7,30.31,West,270,0.0,0.0,56,0.00,,,0.00,0,Wunderground v.1.15,2013-04-24 21:02:00,
2013-04-25 00:32:00,57.3,44.8,30.30,WNW,292,1.0,2.0,63,0.00,,,0.00,0,Wunderground v.1.15,2013-04-24 21:32:00,
2013-04-25 00:42:00,57.0,44.5,30.30,WNW,292,1.0,1.0,63,0.00,,,0.00,0,Wunderground v.1.15,2013-04-24 21:42:00,
2013-04-25 00:52:00,56.8,44.7,30.30,WNW,292,0.0,0.0,64,0.00,,,0.00,0,Wunderground v.1.15,2013-04-24 21:52:00,
2013-04-25 01:02:00,56.6,45.0,30.30,West,281,0.0,0.0,65,0.00,,,0.00,0,Wunderground v.1.15,2013-04-24 22:02:00,
2013-04-25 01:22:00,56.5,45.3,30.30,West,280,1.0,1.0,66,0.00,,,0.00,0,Wunderground v.1.15,2013-04-24 22:22:00,
2013-04-25 01:42:00,56.7,44.7,30.30,West,280,0.0,1.0,64,0.00,,,0.00,0,Wunderground v.1.15,2013-04-24 22:42:00,
2013-04-25 01:52:00,57.2,45.1,30.30,SW,231,1.0,1.0,64,0.00,,,0.00,0,Wunderground v.1.15,2013-04-24 22:52:00,
2013-04-25 02:02:00,56.8,45.6,30.30,SW,231,0.0,0.0,66,0.00,,,0.00,0,Wunderground v.1.15,2013-04-24 23:02:00,
2013-04-25 02:12:00,56.3,45.1,30.29,SW,231,0.0,0.0,66,0.00,,,0.00,0,Wunderground v.1.15,2013-04-24 23:12:00,
2013-04-25 02:22:00,55.5,44.7,30.29,SW,232,1.0,1.0,67,0.00,,,0.00,0,Wunderground v.1.15,2013-04-24 23:22:00,
2013-04-25 02:32:00,55.1,44.7,30.29,SW,232,0.0,0.0,68,0.00,,,0.00,0,Wunderground v.1.15,2013-04-24 23:32:00,
2013-04-25 02:52:00,54.4,44.8,30.29,SW,232,0.0,0.0,70,0.00,,,0.00,0,Wunderground v.1.15,2013-04-24 23:52:00,
2013-04-25 03:12:00,54.0,45.2,30.29,SW,232,0.0,0.0,72,0.00,,,0.00,0,Wunderground v.1.15,2013-04-25 00:12:00,
2013-04-25 03:32:00,54.1,45.3,30.29,SW,232,0.0,1.0,72,0.00,,,0.00,0,Wunderground v.1.15,2013-04-25 00:32:00,
2013-04-25 03:52:00,54.9,45.3,30.28,SW,232,1.0,1.0,70,0.00,,,0.00,0,Wunderground v.1.15,2013-04-25 00:52:00,
2013-04-25 04:02:00,55.9,44.3,30.28,SW,232,0.0,0.0,65,0.00,,,0.00,0,Wunderground v.1.15,2013-04-25 01:02:00,
2013-04-25 04:22:00,55.8,45.4,30.28,SW,232,0.0,0.0,68,0.00,,,0.00,0,Wunderground v.1.15,2013-04-25 01:22:00,
2013-04-25 04:32:00,55.2,45.2,30.27,SW,232,0.0,0.0,69,0.00,,,0.00,0,Wunderground v.1.15,2013-04-25 01:32:00,
2013-04-25 04:52:00,56.3,44.7,30.27,WSW,246,2.0,2.0,65,0.00,,,0.00,0,Wunderground v.1.15,2013-04-25 01:52:00,
2013-04-25 05:02:00,56.9,44.4,30.27,WSW,244,2.0,2.0,63,0.00,,,0.00,0,Wunderground v.1.15,2013-04-25 02:02:00,
2013-04-25 05:12:00,57.0,44.5,30.27,WSW,243,1.0,1.0,63,0.00,,,0.00,0,Wunderground v.1.15,2013-04-25 02:12:00,
2013-04-25 05:22:00,56.9,44.4,30.27,WSW,243,0.0,0.0,63,0.00,,,0.00,0,Wunderground v.1.15,2013-04-25 02:22:00,
2013-04-25 05:32:00,56.8,44.3,30.27,WSW,243,1.0,1.0,63,0.00,,,0.00,0,Wunderground v.1.15,2013-04-25 02:32:00,
2013-04-25 05:42:00,56.6,44.6,30.28,WSW,243,1.0,1.0,64,0.00,,,0.00,0,Wunderground v.1.15,2013-04-25 02:42:00,
2013-04-25 05:52:00,56.3,44.7,30.28,WSW,242,0.0,0.0,65,0.00,,,0.00,0,Wunderground v.1.15,2013-04-25 02:52:00,
2013-04-25 06:02:00,55.9,44.7,30.28,WSW,242,0.0,0.0,66,0.00,,,0.00,0,Wunderground v.1.15,2013-04-25 03:02:00,
2013-04-25 06:12:00,55.6,45.2,30.28,WSW,242,0.0,0.0,68,0.00,,,0.00,5,Wunderground v.1.15,2013-04-25 03:12:00,
2013-04-25 06:22:00,55.9,45.9,30.28,WSW,242,0.0,1.0,69,0.00,,,0.00,12,Wunderground v.1.15,2013-04-25 03:22:00,
2013-04-25 06:32:00,55.7,45.7,30.29,WSW,242,0.0,0.0,69,0.00,,,0.00,19,Wunderground v.1.15,2013-04-25 03:32:00,
2013-04-25 06:42:00,55.5,46.2,30.29,WSW,242,1.0,1.0,71,0.00,,,0.00,32,Wunderground v.1.15,2013-04-25 03:42:00,
2013-04-25 06:52:00,55.5,46.6,30.29,SW,223,1.0,1.0,72,0.00,,,0.00,47,Wunderground v.1.15,2013-04-25 03:52:00,
2013-04-25 07:02:00,55.6,46.7,30.29,SW,224,0.0,2.0,72,0.00,,,0.00,69,Wunderground v.1.15,2013-04-25 04:02:00,
2013-04-25 07:12:00,55.8,46.9,30.29,SW,223,0.0,0.0,72,0.00,,,0.00,93,Wunderground v.1.15,2013-04-25 04:12:00,
2013-04-25 07:22:00,56.4,47.1,30.29,SW,223,0.0,1.0,71,0.00,,,0.00,121,Wunderground v.1.15,2013-04-25 04:22:00,
2013-04-25 07:42:00,58.4,48.3,30.29,SE,124,0.0,0.0,69,0.00,,,0.00,179,Wunderground v.1.15,2013-04-25 04:42:00,
2013-04-25 07:52:00,59.7,46.7,30.29,SE,124,0.0,0.0,62,0.00,,,0.00,204,Wunderground v.1.15,2013-04-25 04:52:00,
2013-04-25 08:02:00,60.7,47.2,30.29,SSW,200,0.0,1.0,61,0.00,,,0.00,236,Wunderground v.1.15,2013-04-25 05:02:00,
2013-04-25 08:12:00,60.7,45.8,30.29,SSW,213,1.0,1.0,58,0.00,,,0.00,265,Wunderground v.1.15,2013-04-25 05:12:00,
2013-04-25 08:22:00,60.5,44.2,30.29,SSW,213,2.0,4.0,55,0.00,,,0.00,292,Wunderground v.1.15,2013-04-25 05:22:00,
2013-04-25 08:32:00,60.3,44.5,30.29,SW,228,3.0,4.0,56,0.00,,,0.00,318,Wunderground v.1.15,2013-04-25 05:32:00,
2013-04-25 08:42:00,60.7,44.4,30.30,SW,233,2.0,2.0,55,0.00,,,0.00,348,Wunderground v.1.15,2013-04-25 05:42:00,
2013-04-25 08:52:00,60.8,44.5,30.30,SSW,196,2.0,2.0,55,0.00,,,0.00,374,Wunderground v.1.15,2013-04-25 05:52:00,
2013-04-25 09:02:00,61.7,44.4,30.30,South,178,1.0,1.0,53,0.00,,,0.00,406,Wunderground v.1.15,2013-04-25 06:02:00,
2013-04-25 09:12:00,62.4,44.5,30.30,SSW,213,1.0,2.0,52,0.00,,,0.00,436,Wunderground v.1.15,2013-04-25 06:12:00,
2013-04-25 09:22:00,63.0,44.1,30.30,SW,215,1.0,2.0,50,0.00,,,0.00,464,Wunderground v.1.15,2013-04-25 06:22:00,
2013-04-25 09:32:00,62.9,42.4,30.30,SW,215,2.0,2.0,47,0.00,,,0.00,487,Wunderground v.1.15,2013-04-25 06:32:00,
2013-04-25 09:42:00,63.9,44.4,30.30,SSW,206,1.0,1.0,49,0.00,,,0.00,517,Wunderground v.1.15,2013-04-25 06:42:00,
2013-04-25 09:52:00,64.2,45.7,30.30,South,172,2.0,2.0,51,0.00,,,0.00,543,Wunderground v.1.15,2013-04-25 06:52:00,
2013-04-25 10:12:00,65.8,45.6,30.30,South,186,3.0,3.0,48,0.00,,,0.00,591,Wunderground v.1.15,2013-04-25 07:12:00,
2013-04-25 10:22:00,65.8,46.1,30.30,South,175,3.0,4.0,49,0.00,,,0.00,617,Wunderground v.1.15,2013-04-25 07:22:00,
2013-04-25 10:32:00,66.9,44.9,30.30,SSW,194,2.0,2.0,45,0.00,,,0.00,642,Wunderground v.1.15,2013-04-25 07:32:00,
2013-04-25 10:42:00,67.2,46.3,30.30,SW,234,2.0,3.0,47,0.00,,,0.00,666,Wunderground v.1.15,2013-04-25 07:42:00,
2013-04-25 10:52:00,66.3,45.5,30.30,SSE,167,3.0,3.0,47,0.00,,,0.00,682,Wunderground v.1.15,2013-04-25 07:52:00,
2013-04-25 11:12:00,64.8,46.2,30.30,SW,236,3.0,4.0,51,0.00,,,0.00,722,Wunderground v.1.15,2013-04-25 08:12:00,
2013-04-25 11:22:00,64.9,44.7,30.30,WSW,250,3.0,3.0,48,0.00,,,0.00,742,Wunderground v.1.15,2013-04-25 08:22:00,
2013-04-25 11:32:00,65.1,44.9,30.30,SW,221,3.0,3.0,48,0.00,,,0.00,758,Wunderground v.1.15,2013-04-25 08:32:00,
2013-04-25 11:42:00,65.7,43.2,30.30,SW,235,3.0,4.0,44,0.00,,,0.00,772,Wunderground v.1.15,2013-04-25 08:42:00,
2013-04-25 11:52:00,66.9,43.7,30.30,SW,215,2.0,3.0,43,0.00,,,0.00,777,Wunderground v.1.15,2013-04-25 08:52:00,
2013-04-25 12:12:00,69.1,43.8,30.29,SW,214,2.0,5.0,40,0.00,,,0.00,800,Wunderground v.1.15,2013-04-25 09:12:00,
2013-04-25 12:22:00,68.9,42.9,30.29,South,171,2.0,2.0,39,0.00,,,0.00,810,Wunderground v.1.15,2013-04-25 09:22:00,
2013-04-25 12:32:00,67.4,41.6,30.29,SSW,208,3.0,3.0,39,0.00,,,0.00,814,Wunderground v.1.15,2013-04-25 09:32:00,
2013-04-25 12:42:00,67.9,42.7,30.28,ESE,107,3.0,3.0,40,0.00,,,0.00,817,Wunderground v.1.15,2013-04-25 09:42:00,
2013-04-25 12:52:00,68.7,43.4,30.28,SSW,205,2.0,2.0,40,0.00,,,0.00,821,Wunderground v.1.15,2013-04-25 09:52:00,
2013-04-25 13:02:00,70.5,43.0,30.28,SSW,200,2.0,3.0,37,0.00,,,0.00,817,Wunderground v.1.15,2013-04-25 10:02:00,
2013-04-25 13:12:00,69.4,43.4,30.27,NW,318,3.0,3.0,39,0.00,,,0.00,819,Wunderground v.1.15,2013-04-25 10:12:00,
2013-04-25 13:22:00,70.0,45.2,30.27,WSW,248,2.0,2.0,41,0.00,,,0.00,816,Wunderground v.1.15,2013-04-25 10:22:00,
2013-04-25 13:32:00,69.6,41.5,30.27,SSW,194,2.0,3.0,36,0.00,,,0.00,810,Wunderground v.1.15,2013-04-25 10:32:00,
2013-04-25 13:42:00,69.5,41.4,30.26,SW,230,3.0,3.0,36,0.00,,,0.00,807,Wunderground v.1.15,2013-04-25 10:42:00,
2013-04-25 13:52:00,70.9,42.6,30.26,West,267,2.0,2.0,36,0.00,,,0.00,800,Wunderground v.1.15,2013-04-25 10:52:00,
2013-04-25 14:12:00,70.6,40.9,30.25,SW,220,4.0,4.0,34,0.00,,,0.00,789,Wunderground v.1.15,2013-04-25 11:12:00,
2013-04-25 14:22:00,70.9,41.9,30.25,SW,222,3.0,3.0,35,0.00,,,0.00,779,Wunderground v.1.15,2013-04-25 11:22:00,
2013-04-25 14:42:00,71.6,41.7,30.24,SSW,205,2.0,4.0,34,0.00,,,0.00,747,Wunderground v.1.15,2013-04-25 11:42:00,
2013-04-25 14:52:00,71.9,42.0,30.24,SW,219,2.0,4.0,34,0.00,,,0.00,737,Wunderground v.1.15,2013-04-25 11:52:00,
2013-04-25 15:02:00,71.7,39.4,30.23,SSW,212,3.0,3.0,31,0.00,,,0.00,719,Wunderground v.1.15,2013-04-25 12:02:00,
2013-04-25 15:12:00,72.6,39.4,30.23,West,269,2.0,3.0,30,0.00,,,0.00,703,Wunderground v.1.15,2013-04-25 12:12:00,
2013-04-25 15:22:00,72.8,39.5,30.23,SW,235,2.0,2.0,30,0.00,,,0.00,673,Wunderground v.1.15,2013-04-25 12:22:00,
2013-04-25 15:32:00,72.4,40.0,30.22,SW,223,3.0,3.0,31,0.00,,,0.00,645,Wunderground v.1.15,2013-04-25 12:32:00,
2013-04-25 15:52:00,72.7,39.5,30.22,SSW,213,2.0,3.0,30,0.00,,,0.00,598,Wunderground v.1.15,2013-04-25 12:52:00,
2013-04-25 16:02:00,71.3,39.1,30.21,WSW,238,4.0,4.0,31,0.00,,,0.00,577,Wunderground v.1.15,2013-04-25 13:02:00,
2013-04-25 16:12:00,71.9,39.6,30.21,SW,214,3.0,3.0,31,0.00,,,0.00,552,Wunderground v.1.15,2013-04-25 13:12:00,
2013-04-25 16:22:00,72.5,41.7,30.21,SW,215,2.0,2.0,33,0.00,,,0.00,524,Wunderground v.1.15,2013-04-25 13:22:00,
2013-04-25 16:32:00,73.5,43.4,30.20,SW,236,2.0,2.0,34,0.00,,,0.00,492,Wunderground v.1.15,2013-04-25 13:32:00,
2013-04-25 16:42:00,74.0,44.6,30.20,SSW,207,2.0,2.0,35,0.00,,,0.00,461,Wunderground v.1.15,2013-04-25 13:42:00,
2013-04-25 17:02:00,74.0,44.6,30.20,SSW,212,2.0,2.0,35,0.00,,,0.00,394,Wunderground v.1.15,2013-04-25 14:02:00,
2013-04-25 17:12:00,73.8,44.4,30.20,SW,236,2.0,2.0,35,0.00,,,0.00,376,Wunderground v.1.15,2013-04-25 14:12:00,
2013-04-25 17:22:00,73.8,43.7,30.20,SSW,196,2.0,2.0,34,0.00,,,0.00,364,Wunderground v.1.15,2013-04-25 14:22:00,
2013-04-25 17:32:00,73.4,44.8,30.19,South,178,2.0,2.0,36,0.00,,,0.00,336,Wunderground v.1.15,2013-04-25 14:32:00,
2013-04-25 17:42:00,73.5,44.2,30.19,South,178,1.0,1.0,35,0.00,,,0.00,297,Wunderground v.1.15,2013-04-25 14:42:00,
2013-04-25 17:52:00,73.7,43.6,30.19,SW,214,1.0,1.0,34,0.00,,,0.00,262,Wunderground v.1.15,2013-04-25 14:52:00,
2013-04-25 18:12:00,73.5,43.4,30.18,SSW,204,1.0,1.0,34,0.00,,,0.00,206,Wunderground v.1.15,2013-04-25 15:12:00,
2013-04-25 18:22:00,73.4,42.5,30.18,SSW,200,1.0,1.0,33,0.00,,,0.00,179,Wunderground v.1.15,2013-04-25 15:22:00,
2013-04-25 18:32:00,73.6,43.5,30.18,SSW,198,1.0,1.0,34,0.00,,,0.00,148,Wunderground v.1.15,2013-04-25 15:32:00,
2013-04-25 18:42:00,73.5,42.6,30.17,SSW,193,1.0,1.0,33,0.00,,,0.00,114,Wunderground v.1.15,2013-04-25 15:42:00,
2013-04-25 19:02:00,73.1,43.1,30.17,SSW,193,0.0,0.0,34,0.00,,,0.00,56,Wunderground v.1.15,2013-04-25 16:02:00,
2013-04-25 19:22:00,71.6,41.7,30.17,SSW,194,1.0,1.0,34,0.00,,,0.00,26,Wunderground v.1.15,2013-04-25 16:22:00,
2013-04-25 19:32:00,71.0,42.7,30.17,SSW,194,0.0,0.0,36,0.00,,,0.00,18,Wunderground v.1.15,2013-04-25 16:32:00,
2013-04-25 19:42:00,70.9,41.9,30.17,SSW,194,0.0,0.0,35,0.00,,,0.00,11,Wunderground v.1.15,2013-04-25 16:42:00,
2013-04-25 19:52:00,70.7,43.8,30.17,SSW,194,0.0,0.0,38,0.00,,,0.00,5,Wunderground v.1.15,2013-04-25 16:52:00,
2013-04-25 20:02:00,70.4,42.9,30.17,SSW,194,0.0,0.0,37,0.00,,,0.00,0,Wunderground v.1.15,2013-04-25 17:02:00,
2013-04-25 20:12:00,70.2,43.4,30.17,SSW,194,1.0,1.0,38,0.00,,,0.00,0,Wunderground v.1.15,2013-04-25 17:12:00,
2013-04-25 20:32:00,69.7,43.6,30.17,SSE,152,1.0,1.0,39,0.00,,,0.00,0,Wunderground v.1.15,2013-04-25 17:32:00,
2013-04-25 20:52:00,69.2,45.1,30.17,SSE,152,0.0,0.0,42,0.00,,,0.00,0,Wunderground v.1.15,2013-04-25 17:52:00,
2013-04-25 21:02:00,68.7,45.3,30.18,SSE,151,0.0,0.0,43,0.00,,,0.00,0,Wunderground v.1.15,2013-04-25 18:02:00,
2013-04-25 21:12:00,68.1,47.1,30.18,SSE,152,0.0,0.0,47,0.00,,,0.00,0,Wunderground v.1.15,2013-04-25 18:12:00,
2013-04-25 21:22:00,67.6,47.2,30.18,SSE,151,0.0,0.0,48,0.00,,,0.00,0,Wunderground v.1.15,2013-04-25 18:22:00,
2013-04-25 21:32:00,67.3,46.9,30.18,SSE,152,0.0,0.0,48,0.00,,,0.00,0,Wunderground v.1.15,2013-04-25 18:32:00,
2013-04-25 21:42:00,67.0,47.2,30.18,SSE,148,0.0,1.0,49,0.00,,,0.00,0,Wunderground v.1.15,2013-04-25 18:42:00,
2013-04-25 21:52:00,66.5,46.7,30.18,SSE,148,0.0,0.0,49,0.00,,,0.00,0,Wunderground v.1.15,2013-04-25 18:52:00,
2013-04-25 22:02:00,66.1,47.4,30.18,SE,142,0.0,0.0,51,0.00,,,0.00,0,Wunderground v.1.15,2013-04-25 19:02:00,
2013-04-25 22:12:00,65.5,47.9,30.18,SE,142,1.0,1.0,53,0.00,,,0.00,0,Wunderground v.1.15,2013-04-25 19:12:00,
2013-04-25 22:22:00,64.1,48.1,30.17,SE,142,1.0,1.0,56,0.00,,,0.00,0,Wunderground v.1.15,2013-04-25 19:22:00,
2013-04-25 22:52:00,62.7,48.2,30.17,SE,142,0.0,0.0,59,0.00,,,0.00,0,Wunderground v.1.15,2013-04-25 19:52:00,
2013-04-25 23:02:00,62.1,48.5,30.17,SE,142,0.0,1.0,61,0.00,,,0.00,0,Wunderground v.1.15,2013-04-25 20:02:00,
2013-04-25 23:12:00,61.6,48.0,30.18,SE,141,1.0,1.0,61,0.00,,,0.00,0,Wunderground v.1.15,2013-04-25 20:12:00,
2013-04-25 23:22:00,62.2,46.8,30.17,SE,141,1.0,1.0,57,0.00,,,0.00,0,Wunderground v.1.15,2013-04-25 20:22:00,
2013-04-25 23:32:00,64.5,46.5,30.17,ENE,73,2.0,2.0,52,0.00,,,0.00,0,Wunderground v.1.15,2013-04-25 20:32:00,
2013-04-25 23:42:00,65.2,45.5,30.18,ENE,73,1.0,1.0,49,0.00,,,0.00,0,Wunderground v.1.15,2013-04-25 20:42:00,
2013-04-25 23:52:00,65.3,45.1,30.18,ENE,62,0.0,0.0,48,0.00,,,0.00,0,Wunderground v.1.15,2013-04-25 20:52:00,